This is the latest recevied weather packets stored in our database for station/object HG8LXL-2. If no packets are shown the sender has not sent any weather packets the latest 10 day(s).
| Time | Temp. | Humidity | Pressure | Rain* | Wind** | Luminosity | Snow |
|---|---|---|---|---|---|---|---|
| 1777458298 | 21.67° C | 12% | 1017.9 hPa | - | - | - | - |
| 1777457998 | 20.56° C | 13% | 1018 hPa | - | - | - | - |
| 1777457698 | 20.56° C | 12% | 1018 hPa | - | - | - | - |
| 1777457398 | 21.11° C | 12% | 1017.9 hPa | - | - | - | - |
| 1777457098 | 20.56° C | 12% | 1018 hPa | - | - | - | - |
| 1777456798 | 20.56° C | 12% | 1018.2 hPa | - | - | - | - |
| 1777456498 | 20° C | 12% | 1018 hPa | - | - | - | - |
| 1777456198 | 20° C | 12% | 1018.1 hPa | - | - | - | - |
| 1777455898 | 20° C | 12% | 1018 hPa | - | - | - | - |
| 1777455598 | 20.56° C | 12% | 1018 hPa | - | - | - | - |
| 1777455298 | 20° C | 12% | 1018.2 hPa | - | - | - | - |
| 1777454998 | 20° C | 12% | 1018.2 hPa | - | - | - | - |
| 1777454698 | 20° C | 12% | 1018.1 hPa | - | - | - | - |
| 1777454398 | 20.56° C | 12% | 1018.1 hPa | - | - | - | - |
| 1777454098 | 19.44° C | 12% | 1018.2 hPa | - | - | - | - |
| 1777453798 | 19.44° C | 12% | 1018.2 hPa | - | - | - | - |
| 1777453498 | 19.44° C | 12% | 1018.3 hPa | - | - | - | - |
| 1777453198 | 20° C | 13% | 1018.3 hPa | - | - | - | - |
| 1777452898 | 20° C | 13% | 1018.2 hPa | - | - | - | - |
| 1777452598 | 19.44° C | 13% | 1018.2 hPa | - | - | - | - |
| 1777452298 | 18.89° C | 14% | 1018.3 hPa | - | - | - | - |
| 1777451998 | 18.89° C | 14% | 1018.3 hPa | - | - | - | - |
| 1777451698 | 20.56° C | 13% | 1018.2 hPa | - | - | - | - |
| 1777451398 | 19.44° C | 13% | 1018.2 hPa | - | - | - | - |
| 1777451098 | 17.78° C | 15% | 1018.4 hPa | - | - | - | - |
* Rain since midnight (hover to see other rain measurements)
** Current wind speed in m/s (hover to see current wind gust speed)